contact:dominique.lefevre@mio.osupytheas.fr, maurice.libes@osupytheas.fr, didier.mallarino@osupytheas.fr
Project:EMSO http://www.emso-fr.org/EMSO-France
Depth: 2436.0 m
Title:EMSO Ligure Ouest : Data MII capteur MICROCAT
DateTime_Computer,Latitude,Longitude,Temperature,Conductivity,Pressure,DateTime_Instrument
DateTime_Computer,Latitude,Longitude,degC,S m-1,dbar,DateTime_Instrument
2021-10-03T00:02:12Z,42.805,6.029,13.2992,4.60009,2470.357,2021-10-03T02:03:35Z
2021-10-03T00:05:16Z,42.805,6.029,13.2993,4.60009,2470.366,2021-10-03T02:06:38Z
2021-10-03T00:08:19Z,42.805,6.029,13.2993,4.60009,2470.334,2021-10-03T02:09:41Z
2021-10-03T00:11:22Z,42.805,6.029,13.2991,4.60011,2470.343,2021-10-03T02:12:44Z
2021-10-03T00:14:25Z,42.805,6.029,13.2996,4.60012,2470.343,2021-10-03T02:15:47Z
2021-10-03T00:17:28Z,42.805,6.029,13.2993,4.60010,2470.343,2021-10-03T02:18:50Z
2021-10-03T00:20:31Z,42.805,6.029,13.2991,4.60009,2470.343,2021-10-03T02:21:54Z
2021-10-03T00:23:34Z,42.805,6.029,13.2994,4.60009,2470.366,2021-10-03T02:24:57Z
2021-10-03T00:26:37Z,42.805,6.029,13.2990,4.60009,2470.32,2021-10-03T02:28:00Z
2021-10-03T00:29:41Z,42.805,6.029,13.2990,4.60008,2470.366,2021-10-03T02:31:03Z
2021-10-03T00:32:44Z,42.805,6.029,13.2993,4.60009,2470.343,2021-10-03T02:34:06Z
2021-10-03T00:35:47Z,42.805,6.029,13.2993,4.60009,2470.334,2021-10-03T02:37:09Z
2021-10-03T00:38:50Z,42.805,6.029,13.2991,4.60009,2470.357,2021-10-03T02:40:12Z
2021-10-03T00:41:53Z,42.805,6.029,13.2992,4.60009,2470.357,2021-10-03T02:43:15Z
2021-10-03T00:44:56Z,42.805,6.029,13.2996,4.60009,2470.343,2021-10-03T02:46:19Z
2021-10-03T00:47:59Z,42.805,6.029,13.2997,4.60011,2470.366,2021-10-03T02:49:22Z
2021-10-03T00:51:02Z,42.805,6.029,13.2992,4.60009,2470.38,2021-10-03T02:52:25Z
2021-10-03T00:54:05Z,42.805,6.029,13.2992,4.60009,2470.343,2021-10-03T02:55:28Z
2021-10-03T00:57:09Z,42.805,6.029,13.2995,4.60009,2470.357,2021-10-03T02:58:31Z
2021-10-03T01:00:12Z,42.805,6.029,13.2993,4.60007,2470.357,2021-10-03T03:01:34Z
2021-10-03T01:03:15Z,42.805,6.029,13.2991,4.60009,2470.38,2021-10-03T03:04:37Z
2021-10-03T01:06:18Z,42.805,6.029,13.2992,4.60008,2470.357,2021-10-03T03:07:40Z
2021-10-03T01:09:21Z,42.805,6.029,13.2993,4.60009,2470.366,2021-10-03T03:10:44Z
2021-10-03T01:12:24Z,42.805,6.029,13.2997,4.60007,2470.38,2021-10-03T03:13:47Z
2021-10-03T01:15:27Z,42.805,6.029,13.2997,4.60009,2470.366,2021-10-03T03:16:50Z
2021-10-03T01:18:30Z,42.805,6.029,13.2996,4.60008,2470.404,2021-10-03T03:19:53Z
2021-10-03T01:21:34Z,42.805,6.029,13.2993,4.60008,2470.366,2021-10-03T03:22:56Z
2021-10-03T01:24:37Z,42.805,6.029,13.2993,4.60006,2470.357,2021-10-03T03:25:59Z
2021-10-03T01:27:40Z,42.805,6.029,13.2993,4.60009,2470.343,2021-10-03T03:29:02Z
2021-10-03T01:30:43Z,42.805,6.029,13.2993,4.60007,2470.366,2021-10-03T03:32:05Z
2021-10-03T01:33:46Z,42.805,6.029,13.2990,4.60009,2470.404,2021-10-03T03:35:09Z
2021-10-03T01:36:49Z,42.805,6.029,13.2991,4.60006,2470.357,2021-10-03T03:38:12Z
2021-10-03T01:39:52Z,42.805,6.029,13.2994,4.60008,2470.357,2021-10-03T03:41:15Z
2021-10-03T01:42:55Z,42.805,6.029,13.2993,4.60008,2470.366,2021-10-03T03:44:18Z
2021-10-03T01:45:58Z,42.805,6.029,13.2990,4.60006,2470.39,2021-10-03T03:47:21Z
2021-10-03T01:49:02Z,42.805,6.029,13.2990,4.60007,2470.343,2021-10-03T03:50:24Z
2021-10-03T01:52:05Z,42.805,6.029,13.2991,4.60006,2470.357,2021-10-03T03:53:27Z
2021-10-03T01:55:08Z,42.805,6.029,13.2990,4.60007,2470.366,2021-10-03T03:56:30Z
2021-10-03T01:58:11Z,42.805,6.029,13.2991,4.60008,2470.366,2021-10-03T03:59:33Z
2021-10-03T02:01:14Z,42.805,6.029,13.2989,4.60007,2470.39,2021-10-03T04:02:37Z
2021-10-03T02:04:17Z,42.805,6.029,13.2993,4.60009,2470.39,2021-10-03T04:05:40Z
2021-10-03T02:07:20Z,42.805,6.029,13.2995,4.60008,2470.357,2021-10-03T04:08:43Z
2021-10-03T02:10:23Z,42.805,6.029,13.2991,4.60009,2470.366,2021-10-03T04:11:46Z
2021-10-03T02:13:27Z,42.805,6.029,13.2993,4.60007,2470.39,2021-10-03T04:14:49Z
2021-10-03T02:16:30Z,42.805,6.029,13.2992,4.60006,2470.417,2021-10-03T04:17:52Z
2021-10-03T02:19:33Z,42.805,6.029,13.2991,4.60006,2470.413,2021-10-03T04:20:55Z
2021-10-03T02:22:36Z,42.805,6.029,13.2997,4.60008,2470.39,2021-10-03T04:23:58Z
2021-10-03T02:25:39Z,42.805,6.029,13.2990,4.60008,2470.366,2021-10-03T04:27:02Z
2021-10-03T02:28:42Z,42.805,6.029,13.2992,4.60006,2470.366,2021-10-03T04:30:05Z
2021-10-03T02:31:45Z,42.805,6.029,13.2993,4.60007,2470.404,2021-10-03T04:33:08Z
2021-10-03T02:34:48Z,42.805,6.029,13.2990,4.60007,2470.39,2021-10-03T04:36:11Z
2021-10-03T02:37:51Z,42.805,6.029,13.2993,4.60008,2470.39,2021-10-03T04:39:14Z
2021-10-03T02:40:55Z,42.805,6.029,13.2991,4.60009,2470.413,2021-10-03T04:42:17Z
2021-10-03T02:43:58Z,42.805,6.029,13.2991,4.60007,2470.39,2021-10-03T04:45:20Z
2021-10-03T02:47:01Z,42.805,6.029,13.2991,4.60008,2470.427,2021-10-03T04:48:23Z
2021-10-03T02:50:04Z,42.805,6.029,13.2994,4.60007,2470.427,2021-10-03T04:51:26Z
2021-10-03T02:53:07Z,42.805,6.029,13.2994,4.60007,2470.39,2021-10-03T04:54:30Z
2021-10-03T02:56:10Z,42.805,6.029,13.2994,4.60007,2470.413,2021-10-03T04:57:33Z
2021-10-03T02:59:13Z,42.805,6.029,13.2992,4.60008,2470.427,2021-10-03T05:00:36Z
2021-10-03T03:02:16Z,42.805,6.029,13.2993,4.60007,2470.38,2021-10-03T05:03:39Z
2021-10-03T03:05:20Z,42.805,6.029,13.2993,4.60009,2470.39,2021-10-03T05:06:42Z
2021-10-03T03:08:23Z,42.805,6.029,13.2994,4.60009,2470.39,2021-10-03T05:09:45Z
2021-10-03T03:11:26Z,42.805,6.029,13.2991,4.60007,2470.413,2021-10-03T05:12:48Z
2021-10-03T03:14:29Z,42.805,6.029,13.2992,4.60009,2470.413,2021-10-03T05:15:51Z
2021-10-03T03:17:32Z,42.805,6.029,13.2995,4.60008,2470.413,2021-10-03T05:18:54Z
2021-10-03T03:20:35Z,42.805,6.029,13.2994,4.60009,2470.45,2021-10-03T05:21:58Z
2021-10-03T03:23:38Z,42.805,6.029,13.2995,4.60008,2470.427,2021-10-03T05:25:01Z
2021-10-03T03:26:41Z,42.805,6.029,13.2992,4.60009,2470.413,2021-10-03T05:28:04Z
2021-10-03T03:29:44Z,42.805,6.029,13.2992,4.60009,2470.413,2021-10-03T05:31:07Z
2021-10-03T03:32:48Z,42.805,6.029,13.2990,4.60009,2470.437,2021-10-03T05:34:10Z
2021-10-03T03:35:51Z,42.805,6.029,13.2995,4.60010,2470.427,2021-10-03T05:37:13Z
2021-10-03T03:38:54Z,42.805,6.029,13.2991,4.60009,2470.437,2021-10-03T05:40:16Z
2021-10-03T03:41:57Z,42.805,6.029,13.2994,4.60009,2470.437,2021-10-03T05:43:19Z
2021-10-03T03:45:00Z,42.805,6.029,13.2995,4.60009,2470.45,2021-10-03T05:46:23Z
2021-10-03T03:48:03Z,42.805,6.029,13.2996,4.60009,2470.45,2021-10-03T05:49:26Z
2021-10-03T03:51:06Z,42.805,6.029,13.2992,4.60009,2470.413,2021-10-03T05:52:29Z
2021-10-03T03:54:09Z,42.805,6.029,13.2993,4.60009,2470.474,2021-10-03T05:55:32Z
2021-10-03T03:57:13Z,42.805,6.029,13.2996,4.60009,2470.427,2021-10-03T05:58:35Z
2021-10-03T04:00:16Z,42.805,6.029,13.2992,4.60010,2470.437,2021-10-03T06:01:38Z
2021-10-03T04:03:19Z,42.805,6.029,13.2993,4.60010,2470.413,2021-10-03T06:04:41Z
2021-10-03T04:06:22Z,42.805,6.029,13.2995,4.60009,2470.474,2021-10-03T06:07:44Z
2021-10-03T04:09:25Z,42.805,6.029,13.2993,4.60012,2470.45,2021-10-03T06:10:47Z
2021-10-03T04:12:28Z,42.805,6.029,13.2993,4.60009,2470.46,2021-10-03T06:13:51Z
2021-10-03T04:15:31Z,42.805,6.029,13.2992,4.60011,2470.46,2021-10-03T06:16:54Z
2021-10-03T04:18:34Z,42.805,6.029,13.2996,4.60010,2470.45,2021-10-03T06:19:57Z
2021-10-03T04:21:37Z,42.805,6.029,13.2993,4.60011,2470.437,2021-10-03T06:23:00Z
2021-10-03T04:24:41Z,42.805,6.029,13.2996,4.60010,2470.46,2021-10-03T06:26:03Z
2021-10-03T04:27:44Z,42.805,6.029,13.2996,4.60009,2470.46,2021-10-03T06:29:06Z
2021-10-03T04:30:47Z,42.805,6.029,13.2993,4.60010,2470.45,2021-10-03T06:32:09Z
2021-10-03T04:33:50Z,42.805,6.029,13.2996,4.60010,2470.474,2021-10-03T06:35:12Z
2021-10-03T04:36:53Z,42.805,6.029,13.2998,4.60011,2470.45,2021-10-03T06:38:16Z
2021-10-03T04:39:56Z,42.805,6.029,13.2998,4.60010,2470.45,2021-10-03T06:41:19Z
2021-10-03T04:42:59Z,42.805,6.029,13.2998,4.60011,2470.45,2021-10-03T06:44:22Z
2021-10-03T04:46:02Z,42.805,6.029,13.2991,4.60009,2470.45,2021-10-03T06:47:25Z
2021-10-03T04:49:06Z,42.805,6.029,13.2994,4.60010,2470.474,2021-10-03T06:50:28Z
2021-10-03T04:52:09Z,42.805,6.029,13.2994,4.60011,2470.427,2021-10-03T06:53:31Z
2021-10-03T04:55:12Z,42.805,6.029,13.2996,4.60011,2470.437,2021-10-03T06:56:34Z
2021-10-03T04:58:15Z,42.805,6.029,13.2993,4.60009,2470.497,2021-10-03T06:59:37Z
2021-10-03T05:01:18Z,42.805,6.029,13.2995,4.60009,2470.413,2021-10-03T07:02:40Z
2021-10-03T05:04:21Z,42.805,6.029,13.2992,4.60009,2470.45,2021-10-03T07:05:44Z
2021-10-03T05:07:24Z,42.805,6.029,13.2994,4.60011,2470.437,2021-10-03T07:08:47Z
2021-10-03T05:10:27Z,42.805,6.029,13.2992,4.60009,2470.437,2021-10-03T07:11:50Z
2021-10-03T05:13:30Z,42.805,6.029,13.2996,4.60011,2470.46,2021-10-03T07:14:53Z
2021-10-03T05:16:34Z,42.805,6.029,13.2996,4.60008,2470.413,2021-10-03T07:17:56Z
2021-10-03T05:19:37Z,42.805,6.029,13.2991,4.60008,2470.46,2021-10-03T07:20:59Z
2021-10-03T05:22:40Z,42.805,6.029,13.2995,4.60009,2470.45,2021-10-03T07:24:02Z
2021-10-03T05:25:43Z,42.805,6.029,13.2992,4.60009,2470.437,2021-10-03T07:27:05Z
2021-10-03T05:28:46Z,42.805,6.029,13.2994,4.60011,2470.437,2021-10-03T07:30:08Z
2021-10-03T05:31:49Z,42.805,6.029,13.2995,4.60009,2470.45,2021-10-03T07:33:12Z
2021-10-03T05:34:52Z,42.805,6.029,13.2993,4.60009,2470.46,2021-10-03T07:36:15Z
2021-10-03T05:37:55Z,42.805,6.029,13.2994,4.60008,2470.45,2021-10-03T07:39:18Z
2021-10-03T05:40:59Z,42.805,6.029,13.2990,4.60008,2470.46,2021-10-03T07:42:21Z
2021-10-03T05:44:02Z,42.805,6.029,13.2993,4.60008,2470.45,2021-10-03T07:45:24Z
2021-10-03T05:47:05Z,42.805,6.029,13.2993,4.60009,2470.437,2021-10-03T07:48:27Z
2021-10-03T05:50:08Z,42.805,6.029,13.2993,4.60008,2470.437,2021-10-03T07:51:30Z
2021-10-03T05:53:11Z,42.805,6.029,13.2990,4.60008,2470.437,2021-10-03T07:54:33Z
2021-10-03T05:56:14Z,42.805,6.029,13.2994,4.60008,2470.413,2021-10-03T07:57:37Z
2021-10-03T05:59:17Z,42.805,6.029,13.2993,4.60009,2470.413,2021-10-03T08:00:40Z
2021-10-03T06:02:20Z,42.805,6.029,13.2991,4.60009,2470.45,2021-10-03T08:03:43Z
2021-10-03T06:05:23Z,42.805,6.029,13.2993,4.60009,2470.437,2021-10-03T08:06:46Z
2021-10-03T06:08:27Z,42.805,6.029,13.2991,4.60009,2470.437,2021-10-03T08:09:49Z
2021-10-03T06:11:30Z,42.805,6.029,13.2993,4.60009,2470.413,2021-10-03T08:12:52Z
2021-10-03T06:14:33Z,42.805,6.029,13.2991,4.60009,2470.413,2021-10-03T08:15:55Z
2021-10-03T06:17:36Z,42.805,6.029,13.2993,4.60007,2470.45,2021-10-03T08:18:58Z
2021-10-03T06:20:39Z,42.805,6.029,13.2995,4.60008,2470.437,2021-10-03T08:22:01Z
2021-10-03T06:23:42Z,42.805,6.029,13.2993,4.60009,2470.437,2021-10-03T08:25:05Z
2021-10-03T06:26:45Z,42.805,6.029,13.2994,4.60008,2470.413,2021-10-03T08:28:08Z
2021-10-03T06:29:48Z,42.805,6.029,13.2994,4.60008,2470.413,2021-10-03T08:31:11Z
2021-10-03T06:32:52Z,42.805,6.029,13.2994,4.60009,2470.437,2021-10-03T08:34:14Z
2021-10-03T06:35:55Z,42.805,6.029,13.2993,4.60009,2470.413,2021-10-03T08:37:17Z
2021-10-03T06:38:58Z,42.805,6.029,13.2992,4.60009,2470.404,2021-10-03T08:40:20Z
2021-10-03T06:42:01Z,42.805,6.029,13.2996,4.60009,2470.437,2021-10-03T08:43:23Z
2021-10-03T06:45:04Z,42.805,6.029,13.2996,4.60008,2470.45,2021-10-03T08:46:26Z
2021-10-03T06:48:07Z,42.805,6.029,13.2996,4.60009,2470.427,2021-10-03T08:49:30Z
2021-10-03T06:51:10Z,42.805,6.029,13.2992,4.60009,2470.413,2021-10-03T08:52:33Z
2021-10-03T06:54:13Z,42.805,6.029,13.2993,4.60009,2470.399,2021-10-03T08:55:36Z
2021-10-03T06:57:16Z,42.805,6.029,13.2993,4.60009,2470.45,2021-10-03T08:58:39Z
2021-10-03T07:00:20Z,42.805,6.029,13.2993,4.60008,2470.366,2021-10-03T09:01:42Z
2021-10-03T07:03:23Z,42.805,6.029,13.2995,4.60009,2470.39,2021-10-03T09:04:45Z
2021-10-03T07:06:26Z,42.805,6.029,13.2993,4.60009,2470.46,2021-10-03T09:07:48Z
2021-10-03T07:09:29Z,42.805,6.029,13.2995,4.60008,2470.413,2021-10-03T09:10:51Z
2021-10-03T07:12:32Z,42.805,6.029,13.2992,4.60007,2470.413,2021-10-03T09:13:55Z
2021-10-03T07:15:35Z,42.805,6.029,13.2993,4.60007,2470.413,2021-10-03T09:16:58Z
2021-10-03T07:18:38Z,42.805,6.029,13.2995,4.60008,2470.427,2021-10-03T09:20:01Z
2021-10-03T07:21:41Z,42.805,6.029,13.2992,4.60009,2470.427,2021-10-03T09:23:04Z
2021-10-03T07:24:45Z,42.805,6.029,13.2991,4.60009,2470.399,2021-10-03T09:26:07Z
2021-10-03T07:27:48Z,42.805,6.029,13.2994,4.60008,2470.413,2021-10-03T09:29:10Z
2021-10-03T07:30:51Z,42.805,6.029,13.2996,4.60009,2470.39,2021-10-03T09:32:13Z
2021-10-03T07:33:54Z,42.805,6.029,13.2991,4.60009,2470.413,2021-10-03T09:35:16Z
2021-10-03T07:36:57Z,42.805,6.029,13.2993,4.60009,2470.366,2021-10-03T09:38:19Z
2021-10-03T07:40:00Z,42.805,6.029,13.2997,4.60009,2470.404,2021-10-03T09:41:23Z
2021-10-03T07:43:03Z,42.805,6.029,13.2993,4.60009,2470.39,2021-10-03T09:44:26Z
2021-10-03T07:46:06Z,42.805,6.029,13.2994,4.60009,2470.427,2021-10-03T09:47:29Z
2021-10-03T07:49:09Z,42.805,6.029,13.2993,4.60009,2470.366,2021-10-03T09:50:32Z
2021-10-03T07:52:13Z,42.805,6.029,13.2996,4.60009,2470.39,2021-10-03T09:53:35Z
2021-10-03T07:55:16Z,42.805,6.029,13.2996,4.60009,2470.413,2021-10-03T09:56:38Z
2021-10-03T07:58:19Z,42.805,6.029,13.2992,4.60009,2470.404,2021-10-03T09:59:41Z
2021-10-03T08:01:22Z,42.805,6.029,13.2996,4.60009,2470.404,2021-10-03T10:02:44Z
2021-10-03T08:04:25Z,42.805,6.029,13.2993,4.60008,2470.39,2021-10-03T10:05:48Z
2021-10-03T08:07:28Z,42.805,6.029,13.2994,4.60009,2470.39,2021-10-03T10:08:51Z
2021-10-03T08:10:31Z,42.805,6.029,13.2991,4.60011,2470.366,2021-10-03T10:11:54Z
2021-10-03T08:13:34Z,42.805,6.029,13.2990,4.60009,2470.39,2021-10-03T10:14:57Z
2021-10-03T08:16:38Z,42.805,6.029,13.2996,4.60009,2470.39,2021-10-03T10:18:00Z
2021-10-03T08:19:41Z,42.805,6.029,13.2991,4.60008,2470.366,2021-10-03T10:21:03Z
2021-10-03T08:22:44Z,42.805,6.029,13.2995,4.60008,2470.399,2021-10-03T10:24:06Z
2021-10-03T08:25:47Z,42.805,6.029,13.2998,4.60009,2470.39,2021-10-03T10:27:09Z
2021-10-03T08:28:50Z,42.805,6.029,13.2993,4.60011,2470.39,2021-10-03T10:30:12Z
2021-10-03T08:31:53Z,42.805,6.029,13.2995,4.60011,2470.38,2021-10-03T10:33:16Z
2021-10-03T08:34:56Z,42.805,6.029,13.2995,4.60009,2470.404,2021-10-03T10:36:19Z
2021-10-03T08:37:59Z,42.805,6.029,13.2993,4.60009,2470.366,2021-10-03T10:39:22Z
2021-10-03T08:41:03Z,42.805,6.029,13.2993,4.60010,2470.366,2021-10-03T10:42:25Z
2021-10-03T08:44:06Z,42.805,6.029,13.2992,4.60009,2470.413,2021-10-03T10:45:28Z
2021-10-03T08:47:09Z,42.805,6.029,13.2993,4.60009,2470.404,2021-10-03T10:48:31Z
2021-10-03T08:50:12Z,42.805,6.029,13.2991,4.60009,2470.38,2021-10-03T10:51:34Z
2021-10-03T08:53:15Z,42.805,6.029,13.2993,4.60011,2470.38,2021-10-03T10:54:37Z
2021-10-03T08:56:18Z,42.805,6.029,13.2994,4.60010,2470.39,2021-10-03T10:57:41Z
2021-10-03T08:59:21Z,42.805,6.029,13.2992,4.60009,2470.343,2021-10-03T11:00:44Z
2021-10-03T09:02:24Z,42.805,6.029,13.2999,4.60009,2470.38,2021-10-03T11:03:47Z
2021-10-03T09:05:28Z,42.805,6.029,13.2995,4.60010,2470.38,2021-10-03T11:06:50Z
2021-10-03T09:08:31Z,42.805,6.029,13.2994,4.60008,2470.357,2021-10-03T11:09:53Z
2021-10-03T09:11:34Z,42.805,6.029,13.2993,4.60009,2470.39,2021-10-03T11:12:56Z
2021-10-03T09:14:37Z,42.805,6.029,13.2994,4.60010,2470.366,2021-10-03T11:15:59Z
2021-10-03T09:17:40Z,42.805,6.029,13.2996,4.60009,2470.343,2021-10-03T11:19:02Z
2021-10-03T09:20:43Z,42.805,6.029,13.2991,4.60011,2470.366,2021-10-03T11:22:06Z
2021-10-03T09:23:46Z,42.805,6.029,13.2992,4.60010,2470.39,2021-10-03T11:25:09Z
2021-10-03T09:26:49Z,42.805,6.029,13.2992,4.60009,2470.357,2021-10-03T11:28:12Z
2021-10-03T09:29:52Z,42.805,6.029,13.2996,4.60009,2470.343,2021-10-03T11:31:15Z
2021-10-03T09:32:56Z,42.805,6.029,13.2991,4.60009,2470.343,2021-10-03T11:34:18Z
2021-10-03T09:35:59Z,42.805,6.029,13.2993,4.60009,2470.366,2021-10-03T11:37:21Z
2021-10-03T09:39:02Z,42.805,6.029,13.2993,4.60008,2470.366,2021-10-03T11:40:24Z
2021-10-03T09:42:05Z,42.805,6.029,13.2993,4.60009,2470.366,2021-10-03T11:43:27Z
2021-10-03T09:45:08Z,42.805,6.029,13.2993,4.60008,2470.366,2021-10-03T11:46:31Z
2021-10-03T09:48:11Z,42.805,6.029,13.2990,4.60009,2470.38,2021-10-03T11:49:34Z
2021-10-03T09:51:14Z,42.805,6.029,13.2991,4.60006,2470.343,2021-10-03T11:52:37Z
2021-10-03T09:54:17Z,42.805,6.029,13.2995,4.60006,2470.343,2021-10-03T11:55:40Z
2021-10-03T09:57:21Z,42.805,6.029,13.2993,4.60006,2470.366,2021-10-03T11:58:43Z
2021-10-03T10:00:24Z,42.805,6.029,13.2990,4.60006,2470.357,2021-10-03T12:01:46Z
2021-10-03T10:03:27Z,42.805,6.029,13.2991,4.60005,2470.366,2021-10-03T12:04:49Z
2021-10-03T10:06:30Z,42.805,6.029,13.2991,4.60006,2470.357,2021-10-03T12:07:52Z
2021-10-03T10:09:33Z,42.805,6.029,13.2990,4.60005,2470.38,2021-10-03T12:10:56Z
2021-10-03T10:12:36Z,42.805,6.029,13.2992,4.60005,2470.343,2021-10-03T12:13:59Z
2021-10-03T10:15:39Z,42.805,6.029,13.2991,4.60006,2470.334,2021-10-03T12:17:02Z
2021-10-03T10:18:42Z,42.805,6.029,13.2990,4.60006,2470.343,2021-10-03T12:20:05Z
2021-10-03T10:21:46Z,42.805,6.029,13.2987,4.60006,2470.32,2021-10-03T12:23:08Z
2021-10-03T10:24:49Z,42.805,6.029,13.2988,4.60008,2470.357,2021-10-03T12:26:11Z
2021-10-03T10:27:52Z,42.805,6.029,13.2994,4.60005,2470.343,2021-10-03T12:29:14Z
2021-10-03T10:30:55Z,42.805,6.029,13.2991,4.60008,2470.32,2021-10-03T12:32:17Z
2021-10-03T10:33:58Z,42.805,6.029,13.2990,4.60006,2470.343,2021-10-03T12:35:21Z
2021-10-03T10:37:01Z,42.805,6.029,13.2989,4.60006,2470.38,2021-10-03T12:38:24Z
2021-10-03T10:40:04Z,42.805,6.029,13.2990,4.60006,2470.343,2021-10-03T12:41:27Z
2021-10-03T10:43:07Z,42.805,6.029,13.2992,4.60007,2470.357,2021-10-03T12:44:30Z
2021-10-03T10:46:11Z,42.805,6.029,13.2991,4.60007,2470.357,2021-10-03T12:47:33Z
2021-10-03T10:49:14Z,42.805,6.029,13.2990,4.60009,2470.32,2021-10-03T12:50:36Z
2021-10-03T10:52:17Z,42.805,6.029,13.2990,4.60009,2470.334,2021-10-03T12:53:39Z
2021-10-03T10:55:20Z,42.805,6.029,13.2988,4.60008,2470.357,2021-10-03T12:56:42Z
2021-10-03T10:58:23Z,42.805,6.029,13.2989,4.60005,2470.357,2021-10-03T12:59:46Z
2021-10-03T11:01:26Z,42.805,6.029,13.2989,4.60006,2470.334,2021-10-03T13:02:49Z
2021-10-03T11:04:29Z,42.805,6.029,13.2991,4.60006,2470.273,2021-10-03T13:05:52Z
2021-10-03T11:07:32Z,42.805,6.029,13.2990,4.60005,2470.32,2021-10-03T13:08:55Z
2021-10-03T11:10:36Z,42.805,6.029,13.2991,4.60006,2470.32,2021-10-03T13:11:58Z
2021-10-03T11:13:39Z,42.805,6.029,13.2992,4.60005,2470.334,2021-10-03T13:15:01Z
2021-10-03T11:16:42Z,42.805,6.029,13.2993,4.60006,2470.343,2021-10-03T13:18:04Z
2021-10-03T11:19:45Z,42.805,6.029,13.2987,4.60006,2470.38,2021-10-03T13:21:07Z
2021-10-03T11:22:48Z,42.805,6.029,13.2990,4.60005,2470.32,2021-10-03T13:24:10Z
2021-10-03T11:25:51Z,42.805,6.029,13.2993,4.60005,2470.357,2021-10-03T13:27:14Z
2021-10-03T11:28:54Z,42.805,6.029,13.2987,4.60006,2470.32,2021-10-03T13:30:17Z
2021-10-03T11:31:57Z,42.805,6.029,13.2993,4.60006,2470.357,2021-10-03T13:33:20Z
2021-10-03T11:35:01Z,42.805,6.029,13.2993,4.60009,2470.334,2021-10-03T13:36:23Z
2021-10-03T11:38:04Z,42.805,6.029,13.2990,4.60006,2470.343,2021-10-03T13:39:26Z
2021-10-03T11:41:07Z,42.805,6.029,13.2989,4.60005,2470.334,2021-10-03T13:42:29Z
2021-10-03T11:44:10Z,42.805,6.029,13.2989,4.60006,2470.343,2021-10-03T13:45:32Z
2021-10-03T11:47:13Z,42.805,6.029,13.2990,4.60006,2470.343,2021-10-03T13:48:35Z
2021-10-03T11:50:16Z,42.805,6.029,13.2989,4.60006,2470.366,2021-10-03T13:51:39Z
2021-10-03T11:53:19Z,42.805,6.029,13.2992,4.60006,2470.334,2021-10-03T13:54:42Z
2021-10-03T11:56:22Z,42.805,6.029,13.2989,4.60006,2470.353,2021-10-03T13:57:45Z
2021-10-03T11:59:25Z,42.805,6.029,13.2987,4.60005,2470.357,2021-10-03T14:00:48Z
2021-10-03T12:02:29Z,42.805,6.029,13.2990,4.60005,2470.334,2021-10-03T14:03:51Z
2021-10-03T12:05:32Z,42.805,6.029,13.2990,4.60004,2470.366,2021-10-03T14:06:54Z
2021-10-03T12:08:35Z,42.805,6.029,13.2991,4.60006,2470.343,2021-10-03T14:09:57Z
2021-10-03T12:11:38Z,42.805,6.029,13.2991,4.60007,2470.343,2021-10-03T14:13:00Z
2021-10-03T12:14:41Z,42.805,6.029,13.2991,4.60006,2470.32,2021-10-03T14:16:04Z
2021-10-03T12:17:44Z,42.805,6.029,13.2993,4.60005,2470.343,2021-10-03T14:19:07Z
2021-10-03T12:20:47Z,42.805,6.029,13.2994,4.60006,2470.38,2021-10-03T14:22:10Z
2021-10-03T12:23:50Z,42.805,6.029,13.2993,4.60004,2470.343,2021-10-03T14:25:13Z
2021-10-03T12:26:54Z,42.805,6.029,13.2992,4.60004,2470.357,2021-10-03T14:28:16Z
2021-10-03T12:29:57Z,42.805,6.029,13.2992,4.60005,2470.39,2021-10-03T14:31:19Z
2021-10-03T12:33:00Z,42.805,6.029,13.2996,4.60005,2470.357,2021-10-03T14:34:22Z
2021-10-03T12:36:03Z,42.805,6.029,13.2991,4.60004,2470.366,2021-10-03T14:37:25Z
2021-10-03T12:39:06Z,42.805,6.029,13.2991,4.60010,2470.357,2021-10-03T14:40:29Z
2021-10-03T12:42:09Z,42.805,6.029,13.2991,4.60006,2470.366,2021-10-03T14:43:32Z
2021-10-03T12:45:12Z,42.805,6.029,13.2993,4.60007,2470.343,2021-10-03T14:46:35Z
2021-10-03T12:48:15Z,42.805,6.029,13.2990,4.60007,2470.32,2021-10-03T14:49:38Z
2021-10-03T12:51:19Z,42.805,6.029,13.2991,4.60007,2470.334,2021-10-03T14:52:41Z
2021-10-03T12:54:22Z,42.805,6.029,13.2991,4.60006,2470.334,2021-10-03T14:55:44Z
2021-10-03T12:57:25Z,42.805,6.029,13.2991,4.60004,2470.357,2021-10-03T14:58:47Z
2021-10-03T13:00:28Z,42.805,6.029,13.2989,4.60006,2470.404,2021-10-03T15:01:50Z
2021-10-03T13:03:31Z,42.805,6.029,13.2992,4.60004,2470.38,2021-10-03T15:04:54Z
2021-10-03T13:06:34Z,42.805,6.029,13.2991,4.60005,2470.343,2021-10-03T15:07:57Z
2021-10-03T13:09:37Z,42.805,6.029,13.2988,4.60008,2470.38,2021-10-03T15:11:00Z
2021-10-03T13:12:40Z,42.805,6.029,13.2993,4.60005,2470.357,2021-10-03T15:14:03Z
2021-10-03T13:15:44Z,42.805,6.029,13.2990,4.60006,2470.366,2021-10-03T15:17:06Z
2021-10-03T13:18:47Z,42.805,6.029,13.2988,4.60007,2470.343,2021-10-03T15:20:09Z
2021-10-03T13:21:50Z,42.805,6.029,13.2993,4.60006,2470.343,2021-10-03T15:23:12Z
2021-10-03T13:24:53Z,42.805,6.029,13.2992,4.60006,2470.366,2021-10-03T15:26:15Z
2021-10-03T13:27:56Z,42.805,6.029,13.2993,4.60005,2470.38,2021-10-03T15:29:19Z
2021-10-03T13:30:59Z,42.805,6.029,13.2993,4.60006,2470.366,2021-10-03T15:32:22Z
2021-10-03T13:34:02Z,42.805,6.029,13.2993,4.60005,2470.404,2021-10-03T15:35:25Z
2021-10-03T13:37:05Z,42.805,6.029,13.2991,4.60007,2470.404,2021-10-03T15:38:28Z
2021-10-03T13:40:09Z,42.805,6.029,13.2991,4.60006,2470.38,2021-10-03T15:41:31Z
2021-10-03T13:43:12Z,42.805,6.029,13.2991,4.60008,2470.38,2021-10-03T15:44:34Z
2021-10-03T13:46:15Z,42.805,6.029,13.2992,4.60006,2470.413,2021-10-03T15:47:37Z
2021-10-03T13:49:18Z,42.805,6.029,13.2993,4.60006,2470.404,2021-10-03T15:50:40Z
2021-10-03T13:52:21Z,42.805,6.029,13.2990,4.60007,2470.427,2021-10-03T15:53:44Z
2021-10-03T13:55:24Z,42.805,6.029,13.2990,4.60007,2470.413,2021-10-03T15:56:47Z
2021-10-03T13:58:27Z,42.805,6.029,13.2993,4.60007,2470.427,2021-10-03T15:59:50Z
2021-10-03T14:01:30Z,42.805,6.029,13.2991,4.60007,2470.39,2021-10-03T16:02:53Z
2021-10-03T14:04:33Z,42.805,6.029,13.2992,4.60006,2470.39,2021-10-03T16:05:56Z
2021-10-03T14:07:37Z,42.805,6.029,13.2990,4.60007,2470.427,2021-10-03T16:08:59Z
2021-10-03T14:10:40Z,42.805,6.029,13.2991,4.60009,2470.413,2021-10-03T16:12:02Z
2021-10-03T14:13:43Z,42.805,6.029,13.2994,4.60008,2470.45,2021-10-03T16:15:05Z
2021-10-03T14:16:46Z,42.805,6.029,13.2990,4.60008,2470.413,2021-10-03T16:18:08Z
2021-10-03T14:19:49Z,42.805,6.029,13.2990,4.60007,2470.413,2021-10-03T16:21:12Z
2021-10-03T14:22:52Z,42.805,6.029,13.2993,4.60009,2470.39,2021-10-03T16:24:15Z
2021-10-03T14:25:55Z,42.805,6.029,13.2993,4.60008,2470.46,2021-10-03T16:27:18Z
2021-10-03T14:28:58Z,42.805,6.029,13.2988,4.60006,2470.39,2021-10-03T16:30:21Z
2021-10-03T14:32:02Z,42.805,6.029,13.2993,4.60009,2470.437,2021-10-03T16:33:24Z
2021-10-03T14:35:05Z,42.805,6.029,13.2990,4.60009,2470.437,2021-10-03T16:36:27Z
2021-10-03T14:38:08Z,42.805,6.029,13.2990,4.60007,2470.413,2021-10-03T16:39:30Z
2021-10-03T14:41:11Z,42.805,6.029,13.2991,4.60008,2470.437,2021-10-03T16:42:33Z
2021-10-03T14:44:14Z,42.805,6.029,13.2991,4.60007,2470.413,2021-10-03T16:45:37Z
2021-10-03T14:47:17Z,42.805,6.029,13.2991,4.60009,2470.45,2021-10-03T16:48:40Z
2021-10-03T14:50:20Z,42.805,6.029,13.2992,4.60006,2470.437,2021-10-03T16:51:43Z
2021-10-03T14:53:23Z,42.805,6.029,13.2993,4.60006,2470.45,2021-10-03T16:54:46Z
2021-10-03T14:56:27Z,42.805,6.029,13.2990,4.60006,2470.437,2021-10-03T16:57:49Z
2021-10-03T14:59:30Z,42.805,6.029,13.2992,4.60007,2470.46,2021-10-03T17:00:52Z
2021-10-03T15:02:33Z,42.805,6.029,13.2993,4.60007,2470.46,2021-10-03T17:03:55Z